Theta_e
321 322 322 323 323 323 324 325 325 326 325 322 321 321 321 314 310 311 312 312 312 313 315 314 315 310 316 330 325 326 317 312 323 338 340 337 336 346 355 353 355 356 355 352 346 347 348
323 324 324 325 325 326 325 326 326 326 326 325 323 321 320 314 310 312 312 312 314 315 313 314 313 310 321 328 322 324 326 326 330 334 333 332 337 343 344 348 354 353 351 351 352 352 349
324 324 325 325 326 326 326 326 326 325 325 324 324 321 321 312 311 312 312 312 315 314 311 311 311 314 326 324 322 325 329 331 333 329 329 330 332 334 343 347 350 351 350 345 350 352 350
324 324 325 326 326 325 325 325 325 325 325 324 323 322 321 313 311 312 312 314 315 312 313 310 308 319 327 319 323 327 327 328 328 325 324 325 325 327 333 342 346 348 349 350 350 351 352
324 325 326 327 326 326 326 326 326 325 325 323 324 322 321 314 311 312 312 315 315 315 315 314 320 324 327 318 324 326 327 327 327 324 324 324 325 326 334 345 348 352 355 353 348 346 352
326 326 327 327 328 327 326 325 325 325 324 324 323 322 322 315 312 312 313 316 318 316 324 323 323 325 324 319 321 324 322 323 323 324 324 324 325 326 333 342 350 350 353 349 350 348 351
326 327 328 328 328 328 327 326 325 325 324 324 323 322 321 315 312 312 315 323 326 326 325 327 321 326 321 321 324 323 323 324 324 324 324 324 323 326 331 338 340 345 349 349 350 348 353
326 326 327 328 329 329 328 327 326 326 325 325 322 322 316 314 312 313 314 325 322 321 323 325 322 322 323 323 323 324 323 322 322 323 325 325 324 327 330 333 336 341 351 351 350 348 350
327 326 327 328 328 329 329 328 327 326 325 325 323 320 313 314 313 315 321 323 320 320 322 323 319 320 323 322 321 322 323 322 322 323 324 326 326 327 329 330 333 338 345 352 351 346 344
328 328 327 328 328 329 329 329 327 326 325 325 322 320 312 312 317 323 322 322 320 320 325 321 318 322 321 322 321 322 321 322 322 321 323 325 327 327 329 330 334 337 341 346 346 344 346
327 327 328 328 327 329 329 329 327 327 325 325 323 320 312 311 316 321 324 320 320 320 331 320 319 322 322 321 322 321 321 321 321 321 322 325 326 328 329 333 333 335 334 341 345 345 342
326 327 327 328 327 329 329 329 327 327 326 325 324 321 313 320 318 318 320 321 320 321 327 321 321 321 321 322 321 322 320 321 322 323 323 324 326 328 329 330 330 330 331 335 337 341 343
326 326 326 327 328 328 329 328 327 327 326 325 324 317 312 315 325 320 320 322 324 324 323 322 322 321 321 321 320 320 320 320 321 323 323 324 324 325 327 328 329 330 331 335 338 338 338
327 327 326 327 327 328 328 328 327 328 326 325 323 315 318 318 321 320 322 324 328 328 325 323 322 321 319 320 320 319 319 319 321 322 324 323 323 323 324 326 328 330 330 330 335 333 333
327 327 327 327 327 328 328 327 327 328 326 325 321 321 322 324 320 321 324 326 327 328 326 322 321 320 319 320 320 319 320 320 321 322 323 325 323 324 323 323 326 328 327 328 327 327 329
325 326 327 327 328 327 327 327 328 328 325 324 319 320 324 322 321 320 324 326 328 326 322 322 320 320 320 320 320 319 319 321 321 321 323 325 323 322 322 322 323 325 326 325 326 331 332
326 325 326 327 327 327 327 328 328 327 325 324 320 327 325 322 320 323 324 326 326 324 323 321 321 321 320 321 320 320 320 322 321 321 320 321 323 323 322 321 322 322 323 325 326 325 328
326 326 327 327 327 327 328 328 327 326 325 325 324 327 325 323 323 322 323 324 319 323 320 321 322 323 322 322 321 320 320 323 321 322 322 320 321 323 322 323 323 323 323 325 327 329 326
326 326 327 327 327 327 328 327 327 326 323 317 327 328 327 325 327 325 326 324 323 322 321 320 322 323 324 324 323 322 324 321 321 321 324 326 321 323 325 323 323 323 325 324 324 326 331
327 326 327 327 327 327 327 327 326 325 324 317 325 330 328 327 325 325 327 328 324 321 321 322 322 322 323 324 324 324 324 321 321 323 326 322 323 324 324 327 326 324 324 324 326 326 326
326 327 327 327 327 327 326 326 326 325 324 319 326 328 329 330 330 327 326 326 326 323 321 322 323 323 323 324 324 325 324 322 321 323 321 321 322 324 322 324 326 325 323 324 325 326 327
323 325 326 326 326 326 325 324 325 324 324 323 329 328 328 329 328 329 326 327 326 324 322 321 322 323 323 324 324 323 324 324 323 322 322 321 327 324 324 325 324 324 324 324 324 324 325
321 322 323 324 325 325 324 323 323 322 323 325 326 326 327 327 327 327 327 327 326 324 322 321 322 323 323 323 323 323 323 324 324 324 323 324 323 325 323 324 326 324 324 323 323 323 323
314 318 318 322 323 324 323 323 321 320 321 322 324 323 326 330 329 328 326 326 324 323 323 321 322 324 322 321 320 319 319 320 321 323 323 324 329 328 325 326 328 325 324 323 323 323 328
310 314 316 318 321 321 321 322 321 319 320 318 320 319 322 327 327 326 324 324 324 324 322 322 321 322 321 320 319 318 318 318 318 319 319 319 322 323 326 325 324 323 328 326 328 339 341
308 310 313 316 317 319 319 319 318 318 318 317 316 313 315 320 323 321 323 321 324 323 323 321 319 318 319 318 318 319 319 318 319 318 318 318 319 320 321 321 321 330 331 330 329 335 338
308 309 309 311 314 316 318 318 318 318 317 316 314 314 314 319 320 321 323 322 323 322 322 319 318 318 317 322 323 318 318 318 318 320 320 318 318 318 319 320 322 330 329 326 328 337 336
307 308 309 310 311 313 315 316 317 316 316 315 313 313 313 318 320 318 318 320 319 321 323 321 320 319 318 321 332 322 319 319 319 320 322 322 319 319 318 318 318 328 327 330 335 334 333
309 310 310 311 311 312 313 314 314 315 315 315 311 311 310 316 318 316 316 317 316 315 318 321 320 319 318 326 339 325 323 321 321 320 322 323 323 326 324 331 330 327 331 329 328 330 331
Wind_Speed
22 25 27 28 27 25 25 27 27 27 26 24 24 25 24 23 24 23 23 20 16 16 12 11 8 10 6 7 2 2 5 10 10 10 13 12 11 12 3 4 12 12 20 8 7 8 21
25 25 25 26 27 28 27 26 27 27 27 26 25 26 25 24 26 24 24 18 14 11 10 6 3 7 4 8 5 6 9 12 12 13 14 12 12 11 6 14 8 2 18 6 3 2 3
24 25 26 26 26 28 28 29 28 27 28 29 27 26 25 24 26 26 24 15 11 7 7 3 3 2 8 7 1 7 11 13 14 14 10 9 13 13 11 8 19 21 19 2 3 12 6
25 25 25 26 27 29 29 30 28 25 27 29 27 26 25 25 27 26 21 12 8 4 4 4 2 5 5 2 3 9 12 13 11 10 9 6 8 12 15 11 4 7 4 8 11 13 9
24 25 26 26 28 28 30 28 25 25 27 29 27 26 26 25 26 26 16 11 7 5 6 5 4 8 6 5 10 11 12 12 9 12 9 7 8 13 15 13 10 9 5 9 5 13 16
24 25 26 26 27 29 30 27 25 26 27 29 28 26 26 26 25 25 13 11 9 8 7 8 14 8 8 9 13 13 12 12 9 10 10 10 7 10 12 12 12 12 10 7 7 13 15
24 24 25 26 27 28 29 28 26 27 29 30 28 27 26 27 24 20 14 7 4 6 12 9 13 9 6 12 12 13 12 10 11 9 13 14 10 13 18 17 17 6 9 12 18 10 18
25 25 25 25 26 28 28 28 27 28 29 31 27 28 28 27 24 12 10 6 7 8 10 18 7 4 2 10 8 12 13 11 11 13 15 11 15 17 17 17 16 7 22 14 5 8 3
26 26 26 26 26 27 28 28 28 29 31 32 26 27 30 27 18 9 11 12 7 9 6 12 10 13 12 11 12 15 15 14 11 14 15 16 16 17 17 17 14 16 13 13 8 12 12
27 27 26 26 27 28 29 28 28 30 31 33 28 27 30 27 9 11 10 1 7 4 6 13 10 9 12 13 14 16 16 13 7 13 16 16 18 14 17 12 9 13 11 8 10 12 9
26 26 27 26 26 27 28 27 27 29 30 32 30 28 30 17 14 8 6 5 8 6 5 11 12 12 9 16 13 10 14 15 14 13 12 12 16 9 7 11 13 14 15 13 14 11 10
25 25 24 25 26 27 29 25 25 27 30 33 32 31 28 3 7 13 10 8 7 6 4 10 10 9 15 15 8 14 10 10 11 13 13 16 12 9 14 14 15 13 13 9 7 11 13
25 24 24 23 25 27 25 23 24 27 30 34 33 29 19 10 3 5 6 7 6 9 7 11 13 14 16 13 12 9 13 14 12 10 12 13 11 4 11 15 16 11 12 6 8 10 12
26 25 23 20 21 23 22 22 25 28 31 34 34 18 8 11 8 7 8 7 7 9 11 4 9 16 15 16 13 11 14 14 18 13 10 12 14 15 15 17 13 13 17 9 12 10 13
24 24 21 19 21 20 20 22 25 28 30 34 32 8 7 10 8 7 7 9 13 11 4 4 7 12 15 14 7 13 13 15 13 12 9 8 15 20 15 14 19 14 16 18 20 19 13
22 22 18 18 18 19 19 22 25 28 30 33 20 12 19 8 8 9 7 15 18 8 8 5 13 11 15 13 8 12 13 11 4 3 9 12 6 11 11 8 16 16 12 13 12 16 16
22 21 18 16 17 16 17 21 24 26 31 18 7 6 15 8 8 6 10 15 14 5 6 10 11 12 15 11 14 12 9 7 4 1 7 15 10 8 10 10 13 12 13 10 13 15 12
21 19 17 14 15 17 18 20 22 24 30 13 8 5 11 9 7 7 12 19 9 6 6 12 9 16 12 12 15 14 17 5 8 7 12 11 9 7 13 17 16 18 17 16 9 13 11
20 17 16 14 15 17 18 18 18 20 22 13 5 10 7 9 8 11 17 18 4 11 10 13 11 9 3 10 7 16 12 6 6 3 4 9 8 10 10 6 5 8 13 14 18 16 13
19 20 19 18 18 19 17 16 15 16 16 11 5 5 7 8 10 17 16 16 12 12 9 14 11 10 8 8 10 9 11 5 4 3 4 3 10 14 10 11 7 18 15 12 12 10 13
20 19 20 20 19 19 17 15 14 14 13 8 5 6 10 7 8 11 15 18 16 15 13 6 10 8 12 12 11 10 6 8 5 5 2 4 12 14 17 14 4 13 15 11 11 13 11
23 22 20 20 19 18 17 16 13 11 11 5 5 8 10 13 15 17 14 16 20 16 14 18 15 15 17 16 14 12 17 12 8 11 6 9 10 13 17 18 6 12 8 3 8 11 13
23 22 21 19 17 17 16 15 12 9 6 7 14 17 7 9 13 14 14 17 16 18 11 14 15 14 14 4 3 6 9 7 5 11 6 11 11 11 15 12 15 14 13 11 10 11 11
23 22 22 20 18 16 15 13 12 10 9 10 13 10 6 11 13 14 17 16 16 11 15 10 9 12 8 8 7 5 7 4 1 4 8 6 4 6 11 10 17 14 14 18 12 15 10
24 22 21 21 18 16 14 13 12 12 10 11 6 4 3 8 12 17 18 16 15 13 10 10 5 10 6 4 3 3 7 5 8 12 9 10 8 8 10 12 12 16 9 6 7 9 16
25 22 21 22 20 18 17 16 15 14 12 14 12 10 2 3 5 6 10 21 7 10 11 3 7 2 1 3 7 9 9 9 9 8 8 12 9 8 9 12 16 10 9 9 8 4 13
26 25 23 23 21 20 21 19 18 17 16 17 9 17 3 2 3 2 4 6 13 10 7 6 4 2 8 5 6 9 11 13 11 14 10 10 9 11 11 9 3 8 6 5 7 2 8
25 24 21 21 22 22 22 22 19 18 18 19 11 22 13 3 3 6 3 8 8 10 8 4 8 9 7 7 3 4 8 9 7 4 13 9 9 8 10 12 11 8 2 3 4 7 7
25 24 23 23 22 23 23 22 21 20 20 20 8 22 27 2 2 8 11 16 19 24 7 9 11 10 6 5 2 5 7 3 6 8 2 3 4 3 7 4 7 10 11 6 5 4 6
Wind_Direction
9 8 5 4 2 1 359 357 356 358 355 351 348 346 345 344 343 341 336 330 327 324 324 322 299 299 327 232 279 66 179 183 182 192 238 250 240 245 53 260 129 185 261 265 120 148 100
6 3 1 357 356 353 354 352 351 352 353 350 346 345 344 344 341 338 335 327 325 327 327 332 276 299 269 256 61 143 151 168 185 207 231 245 257 273 255 247 139 281 302 68 314 27 267
2 359 357 357 355 352 349 348 347 349 350 348 346 344 343 342 339 334 332 325 326 328 327 318 280 277 260 294 191 158 167 187 209 216 241 251 280 299 260 286 139 148 255 189 82 294 169
358 356 356 357 356 353 349 344 344 347 345 346 344 342 342 340 338 333 330 320 318 318 315 309 239 234 283 139 227 186 186 205 211 232 262 292 270 284 286 304 174 185 271 205 151 249 354
353 353 355 354 356 351 347 347 351 347 346 344 342 341 341 341 338 332 322 310 294 291 285 288 253 219 245 163 202 196 198 202 205 228 230 267 262 252 265 255 225 164 182 242 287 248 201
349 350 349 350 349 349 350 353 352 349 347 344 341 340 338 338 336 330 313 307 277 282 278 250 269 254 194 209 185 187 199 198 200 214 223 224 230 236 239 235 226 187 169 158 220 263 114
345 345 344 345 346 347 351 354 353 351 347 345 341 339 336 337 334 324 311 294 207 205 229 277 140 262 155 156 152 190 198 216 207 219 223 203 214 216 223 237 243 154 226 199 199 251 103
339 339 340 341 342 344 345 349 349 348 347 345 342 340 336 335 329 307 297 260 35 331 295 213 258 297 327 148 187 196 184 213 208 213 225 187 228 232 227 240 247 248 163 210 277 236 140
334 333 334 336 338 340 341 342 347 348 348 347 342 339 335 333 323 276 243 296 323 317 265 177 208 213 193 211 201 190 190 214 206 224 218 232 219 227 245 239 251 232 225 161 211 211 269
328 328 329 331 334 337 337 336 340 345 346 346 341 338 335 331 306 319 250 306 296 320 272 159 189 223 173 212 215 175 192 216 236 234 238 229 253 208 235 233 222 258 242 140 271 191 188
318 319 322 325 330 333 332 331 335 342 342 343 339 336 331 322 302 280 17 301 318 252 270 143 159 134 182 218 126 163 186 219 245 222 238 222 244 206 220 216 242 245 267 192 179 290 239
328 324 319 321 326 329 329 329 332 338 341 341 336 334 326 287 240 260 307 299 255 238 246 153 147 194 182 222 175 149 195 245 242 265 244 251 229 189 227 230 236 252 262 287 284 221 255
329 325 325 318 321 327 330 331 333 337 341 339 334 330 308 279 344 342 288 266 229 250 114 160 178 182 195 194 204 170 199 206 220 220 213 233 248 209 242 229 220 225 244 212 236 238 245
328 328 327 325 323 329 332 332 335 338 341 338 332 321 280 251 277 268 260 239 257 249 193 108 182 187 200 198 194 184 200 214 231 225 221 207 213 205 223 244 205 213 228 220 214 228 233
329 329 328 326 326 330 332 333 336 338 341 337 333 311 229 250 219 246 249 231 228 287 282 155 215 188 207 182 202 199 223 223 196 240 290 264 222 192 190 220 247 194 228 242 264 276 261
331 330 329 327 326 329 332 334 336 336 340 338 327 293 254 165 188 219 241 258 296 314 345 238 222 218 209 179 185 199 198 233 163 12 320 317 114 151 172 213 244 259 207 226 242 258 271
333 333 329 329 333 336 338 339 338 341 342 340 291 260 127 160 189 230 242 248 262 126 279 255 245 212 239 183 201 222 243 128 111 149 265 297 287 163 208 199 234 223 246 257 251 227 249
339 337 336 333 333 330 333 339 340 345 348 352 288 276 140 192 231 231 244 250 275 271 223 271 292 282 208 237 199 222 215 104 50 336 301 243 291 244 196 218 223 239 218 234 234 234 237
333 340 337 332 326 328 331 336 339 348 357 335 285 295 204 220 248 238 244 244 324 258 205 234 231 269 234 220 201 231 108 83 107 162 332 339 238 245 155 152 276 267 263 213 234 264 240
322 321 323 322 322 325 327 331 336 344 347 340 283 289 204 196 249 279 295 290 227 236 286 239 238 221 238 236 192 221 119 108 97 312 8 303 291 300 297 324 326 193 238 241 257 233 238
310 310 310 309 311 314 320 321 322 330 337 334 250 270 338 299 253 250 253 270 276 220 226 257 257 218 219 228 201 220 213 138 204 150 261 253 270 287 296 298 282 299 197 218 234 271 282
306 306 303 303 307 307 307 311 309 315 322 262 291 330 333 306 294 285 280 270 264 252 186 240 238 226 238 229 218 204 213 158 202 173 217 246 267 288 290 295 252 259 279 245 201 244 273
303 303 301 300 302 296 294 301 297 297 297 283 299 312 276 275 283 280 260 271 263 269 230 209 237 247 235 283 40 4 350 170 182 188 182 252 246 245 264 273 279 255 241 245 231 245 272
296 299 303 299 296 292 288 286 287 278 259 296 298 311 283 274 271 260 269 268 279 278 275 223 292 249 77 66 37 2 308 263 304 248 256 224 256 290 268 261 244 261 260 228 258 248 313
293 288 289 294 288 288 288 283 276 272 255 241 277 301 286 267 277 286 283 294 243 264 276 233 91 64 129 116 150 220 231 218 220 226 229 250 229 233 240 253 263 270 332 208 208 88 34
296 289 281 280 282 273 277 277 272 264 255 242 241 214 263 287 235 303 311 302 246 253 203 113 53 340 2 201 223 200 213 202 205 186 219 226 202 255 249 249 247 59 49 8 17 187 37
294 291 282 275 276 274 266 264 264 262 250 240 228 209 168 211 273 35 115 312 275 227 193 149 137 30 264 251 233 212 228 213 202 194 171 217 209 214 226 245 198 48 62 358 220 80 48
295 293 289 279 271 269 266 261 253 255 247 234 230 213 190 213 233 217 159 251 315 271 229 147 167 204 207 212 194 253 235 213 230 166 191 193 205 228 240 244 229 11 269 347 74 89 49
294 290 285 281 276 270 267 263 255 250 241 233 213 208 201 239 317 215 240 258 276 279 284 215 216 183 177 204 100 242 284 151 215 206 84 223 23 7 15 60 98 73 84 78 57 61 50